Location: Zilina
(0.0000°N, 18.7333°E)
Time: 02:02:03
(UTC+01:00)

H-2A R/B - Pass Details

Date: 19 February 2019
Orbit: 281 x 30674 km, 28.3° (Epoch: 18 March)

Event Time Altitude Azimuth Distance (km) Brightness Sun altitude
Rises 19:27:29 0° 235° (SW) 5,563 8.1 -21.7°
Reaches altitude 10° 19:33:12 10° 227° (SW) 2,736 6.1 -23.1°
Enters shadow 19:37:04 29° 187° (S) 906 3.0 -24.0°
